AL, 04, 1906082512,   , BEST,   0, 140N,  210W,  35,     , TS, , , , , , , , , , , , , ,    UNNAMED
AL, 04, 1906082518,   , BEST,   0, 140N,  225W,  35,     , TS, , , , , , , , , , , , , ,    UNNAMED
AL, 04, 1906082600,   , BEST,   0, 140N,  240W,  40,     , TS, , , , , , , , , , , , , ,    UNNAMED
AL, 04, 1906082606,   , BEST,   0, 140N,  255W,  40,     , TS, , , , , , , , , , , , , ,    UNNAMED
AL, 04, 1906082612,   , BEST,   0, 140N,  270W,  45,     , TS, , , , , , , , , , , , , ,    UNNAMED
AL, 04, 1906082618,   , BEST,   0, 140N,  285W,  45,     , TS, , , , , , , , , , , , , ,    UNNAMED
AL, 04, 1906082700,   , BEST,   0, 140N,  300W,  50,     , TS, , , , , , , , , , , , , ,    UNNAMED
AL, 04, 1906082706,   , BEST,   0, 140N,  315W,  50,     , TS, , , , , , , , , , , , , ,    UNNAMED
AL, 04, 1906082712,   , BEST,   0, 140N,  330W,  55,     , TS, , , , , , , , , , , , , ,    UNNAMED
AL, 04, 1906082718,   , BEST,   0, 140N,  346W,  55,     , TS, , , , , , , , , , , , , ,    UNNAMED
AL, 04, 1906082800,   , BEST,   0, 139N,  362W,  60,     , TS, , , , , , , , , , , , , ,    UNNAMED
AL, 04, 1906082806,   , BEST,   0, 139N,  378W,  60,     , TS, , , , , , , , , , , , , ,    UNNAMED
AL, 04, 1906082812,   , BEST,   0, 138N,  395W,  65,     , HU, , , , , , , , , , , , , ,    UNNAMED
AL, 04, 1906082818,   , BEST,   0, 138N,  412W,  65,     , HU, , , , , , , , , , , , , ,    UNNAMED
AL, 04, 1906082900,   , BEST,   0, 137N,  428W,  70,     , HU, , , , , , , , , , , , , ,    UNNAMED
AL, 04, 1906082906,   , BEST,   0, 137N,  444W,  70,     , HU, , , , , , , , , , , , , ,    UNNAMED
AL, 04, 1906082912,   , BEST,   0, 136N,  460W,  70,     , HU, , , , , , , , , , , , , ,    UNNAMED
AL, 04, 1906082918,   , BEST,   0, 136N,  477W,  70,     , HU, , , , , , , , , , , , , ,    UNNAMED
AL, 04, 1906083000,   , BEST,   0, 136N,  493W,  75,     , HU, , , , , , , , , , , , , ,    UNNAMED
AL, 04, 1906083006,   , BEST,   0, 135N,  509W,  75,     , HU, , , , , , , , , , , , , ,    UNNAMED
AL, 04, 1906083012,   , BEST,   0, 135N,  525W,  75,     , HU, , , , , , , , , , , , , ,    UNNAMED
AL, 04, 1906083018,   , BEST,   0, 137N,  540W,  80,     , HU, , , , , , , , , , , , , ,    UNNAMED
AL, 04, 1906083100,   , BEST,   0, 141N,  553W,  80,     , HU, , , , , , , , , , , , , ,    UNNAMED
AL, 04, 1906083106,   , BEST,   0, 145N,  565W,  80,     , HU, , , , , , , , , , , , , ,    UNNAMED
AL, 04, 1906083112,   , BEST,   0, 150N,  575W,  85,     , HU, , , , , , , , , , , , , ,    UNNAMED
AL, 04, 1906083118,   , BEST,   0, 155N,  583W,  85,     , HU, , , , , , , , , , , , , ,    UNNAMED
AL, 04, 1906090100,   , BEST,   0, 160N,  590W,  85,     , HU, , , , , , , , , , , , , ,    UNNAMED
AL, 04, 1906090106,   , BEST,   0, 165N,  600W,  85,     , HU, , , , , , , , , , , , , ,    UNNAMED
AL, 04, 1906090112,   , BEST,   0, 170N,  607W,  90,     , HU, , , , , , , , , , , , , ,    UNNAMED
AL, 04, 1906090118,   , BEST,   0, 175N,  614W,  90,     , HU, , , , , , , , , , , , , ,    UNNAMED
AL, 04, 1906090200,   , BEST,   0, 180N,  622W,  90,     , HU, , , , , , , , , , , , , ,    UNNAMED
AL, 04, 1906090206,   , BEST,   0, 185N,  631W,  90,     , HU, , , , , , , , , , , , , ,    UNNAMED
AL, 04, 1906090212,   , BEST,   0, 190N,  640W,  90,     , HU, , , , , , , , , , , , , ,    UNNAMED
AL, 04, 1906090218,   , BEST,   0, 193N,  647W,  95,     , HU, , , , , , , , , , , , , ,    UNNAMED
AL, 04, 1906090300,   , BEST,   0, 196N,  654W,  95,     , HU, , , , , , , , , , , , , ,    UNNAMED
AL, 04, 1906090306,   , BEST,   0, 198N,  660W, 100,     , HU, , , , , , , , , , , , , ,    UNNAMED
AL, 04, 1906090312,   , BEST,   0, 200N,  667W, 100,     , HU, , , , , , , , , , , , , ,    UNNAMED
AL, 04, 1906090318,   , BEST,   0, 203N,  676W, 105,     , HU, , , , , , , , , , , , , ,    UNNAMED
AL, 04, 1906090400,   , BEST,   0, 206N,  683W, 105,     , HU, , , , , , , , , , , , , ,    UNNAMED
AL, 04, 1906090406,   , BEST,   0, 209N,  690W, 110,     , HU, , , , , , , , , , , , , ,    UNNAMED
AL, 04, 1906090412,   , BEST,   0, 213N,  696W, 110,     , HU, , , , , , , , , , , , , ,    UNNAMED
AL, 04, 1906090418,   , BEST,   0, 216N,  702W, 110,     , HU, , , , , , , , , , , , , ,    UNNAMED
AL, 04, 1906090500,   , BEST,   0, 221N,  708W, 115,     , HU, , , , , , , , , , , , , ,    UNNAMED
AL, 04, 1906090506,   , BEST,   0, 225N,  714W, 115,     , HU, , , , , , , , , , , , , ,    UNNAMED
AL, 04, 1906090512,   , BEST,   0, 231N,  720W, 115,     , HU, , , , , , , , , , , , , ,    UNNAMED
AL, 04, 1906090518,   , BEST,   0, 235N,  727W, 115,     , HU, , , , , , , , , , , , , ,    UNNAMED
AL, 04, 1906090600,   , BEST,   0, 239N,  734W, 115,     , HU, , , , , , , , , , , , , ,    UNNAMED
AL, 04, 1906090606,   , BEST,   0, 244N,  740W, 115,     , HU, , , , , , , , , , , , , ,    UNNAMED
AL, 04, 1906090612,   , BEST,   0, 250N,  747W, 115,     , HU, , , , , , , , , , , , , ,    UNNAMED
AL, 04, 1906090618,   , BEST,   0, 258N,  756W, 110,     , HU, , , , , , , , , , , , , ,    UNNAMED
AL, 04, 1906090700,   , BEST,   0, 268N,  764W, 110,     , HU, , , , , , , , , , , , , ,    UNNAMED
AL, 04, 1906090706,   , BEST,   0, 279N,  766W, 110,     , HU, , , , , , , , , , , , , ,    UNNAMED
AL, 04, 1906090712,   , BEST,   0, 290N,  760W, 110,     , HU, , , , , , , , , , , , , ,    UNNAMED
AL, 04, 1906090718,   , BEST,   0, 295N,  748W, 110,     , HU, , , , , , , , , , , , , ,    UNNAMED
AL, 04, 1906090800,   , BEST,   0, 298N,  735W, 110,     , HU, , , , , , , , , , , , , ,    UNNAMED
AL, 04, 1906090806,   , BEST,   0, 300N,  721W, 110,     , HU, , , , , , , , , , , , , ,    UNNAMED
AL, 04, 1906090812,   , BEST,   0, 303N,  705W, 110,     , HU, , , , , , , , , , , , , ,    UNNAMED
AL, 04, 1906090818,   , BEST,   0, 307N,  693W, 110,     , HU, , , , , , , , , , , , , ,    UNNAMED
AL, 04, 1906090900,   , BEST,   0, 313N,  681W, 105,     , HU, , , , , , , , , , , , , ,    UNNAMED
AL, 04, 1906090906,   , BEST,   0, 319N,  669W, 105,     , HU, , , , , , , , , , , , , ,    UNNAMED
AL, 04, 1906090912,   , BEST,   0, 325N,  657W, 105,     , HU, , , , , , , , , , , , , ,    UNNAMED
AL, 04, 1906090918,   , BEST,   0, 336N,  643W, 105,     , HU, , , , , , , , , , , , , ,    UNNAMED
AL, 04, 1906091000,   , BEST,   0, 347N,  629W, 100,     , HU, , , , , , , , , , , , , ,    UNNAMED
AL, 04, 1906091006,   , BEST,   0, 358N,  614W, 100,     , HU, , , , , , , , , , , , , ,    UNNAMED
AL, 04, 1906091012,   , BEST,   0, 370N,  600W, 100,     , HU, , , , , , , , , , , , , ,    UNNAMED
AL, 04, 1906091018,   , BEST,   0, 384N,  569W, 100,     , HU, , , , , , , , , , , , , ,    UNNAMED
AL, 04, 1906091100,   , BEST,   0, 400N,  528W,  95,  950, HU, , , , , , , , , , , , , ,    UNNAMED
AL, 04, 1906091106,   , BEST,   0, 422N,  488W,  85,     , HU, , , , , , , , , , , , , ,    UNNAMED
AL, 04, 1906091112,   , BEST,   0, 450N,  450W,  75,     , EX, , , , , , , , , , , , , ,    UNNAMED
AL, 04, 1906091118,   , BEST,   0, 475N,  404W,  65,     , EX, , , , , , , , , , , , , ,    UNNAMED
AL, 04, 1906091200,   , BEST,   0, 495N,  354W,  60,     , EX, , , , , , , , , , , , , ,    UNNAMED
AL, 04, 1906091206,   , BEST,   0, 513N,  303W,  55,     , EX, , , , , , , , , , , , , ,    UNNAMED
AL, 04, 1906091212,   , BEST,   0, 530N,  250W,  50,     , EX, , , , , , , , , , , , , ,    UNNAMED
AL, 04, 1906091218,   , BEST,   0, 540N,  203W,  45,     , EX, , , , , , , , , , , , , ,    UNNAMED
